Home > Weather > Bünde > Past weeks

Flag for Germany Weather for the Past 2 Weeks in Bünde, North Rhine-Westphalia, Germany

Now
41 °F

Quite cool.


Feels Like: 37 °F
Forecast: 38 / 65 °F
Wind: 6 mph from Northeast

Location: Bueckeburg

Current Time: May 1, 2016 at 6:58:57 AM

Latest Report: May 1, 2016 at 5:20 AM


Visibility: 6 mi

Pressure: 30.21 "Hg

Humidity: 93%

Dew Point: 39 °F

Location of BündeLocation

Historic Weather in Bünde — Graph

°F

Bünde Temperature Yesterday

Maximum temperature yesterday: 50 °F (at 5:20 PM)
Minimum temperature yesterday: 39 °F (at 1:20 AM)
Average temperature yesterday: 44 °F

High & Low Weather Summary for the Past Weeks

 TemperatureHumidityPressure
High59 °F (Apr 16, 2:20 PM)100% (Apr 17, 6:20 AM)30.45 "Hg (Apr 17, 6:20 AM)
Low32 °F (Apr 21, 6:20 AM)36% (Apr 21, 6:20 PM)29.39 "Hg (Apr 26, 1:20 PM)
Average44 °F74%29.93 "Hg
* Reported Apr 16 5:20 AM — May 1 5:20 AM, Bünde, Weather by CustomWeather, © 2016

Note: Actual official high and low records may vary slightly from our data, if they occured in-between our weather recording intervals... More about our weather records

Advertising

Bünde Weather History for the Previous 24 Hours

Scroll right to see more
 ConditionsComfort  
Time TempWeatherWind HumidityBarometerVisibility
5:20 AM
Sun, May 1
41 °FQuite cool.6 mph93%30.21 "Hg6 mi
4:20 AM41 °FQuite cool.5 mph93%30.21 "Hg3 mi
3:20 AM41 °FQuite cool.2 mph93%30.21 "Hg4 mi
2:20 AM43 °FQuite cool.6 mph87%30.21 "Hg6 mi
1:20 AM43 °FQuite cool.5 mph93%30.18 "HgN/A
12:20 AM45 °FQuite cool.6 mph93%30.18 "HgN/A
11:20 PM
Sat, Apr 30
45 °FQuite cool.5 mph93%30.18 "HgN/A
10:20 PM45 °FQuite cool.3 mph93%30.15 "Hg6 mi
9:20 PM45 °FQuite cool.3 mph93%30.15 "HgN/A
8:20 PM46 °FCool.3 mph87%30.12 "HgN/A
7:20 PM46 °FCool.5 mph87%30.12 "Hg6 mi
6:20 PM48 °FCool.7 mph76%30.12 "HgN/A
5:20 PM50 °FBroken clouds.8 mph67%30.09 "HgN/A
4:20 PM48 °FPartly sunny.6 mph76%30.09 "HgN/A
3:20 PM46 °FLight rain. More clouds than sun.6 mph82%30.09 "HgN/A
2:20 PM46 °FLight rain. More clouds than sun.3 mph87%30.09 "HgN/A
1:20 PM45 °FLight rain. Partly sunny.3 mph87%30.09 "HgN/A
12:20 PM45 °FDrizzle. Mostly cloudy.6 mph87%30.09 "HgN/A
11:20 AM45 °FDrizzle. Broken clouds.6 mph87%30.07 "HgN/A
10:20 AM45 °FLight rain. Broken clouds.6 mph81%30.07 "HgN/A
9:20 AM45 °FPartly sunny.8 mph87%30.04 "HgN/A
9:01 AM45 °FPartly sunny.9 mph87%30.04 "HgN/A
8:20 AM46 °FPartly sunny.2 mph82%30.04 "HgN/A
7:20 AM41 °FOvercast.1 mph93%30.01 "HgN/A
6:20 AM43 °FPassing clouds.1 mph87%30.01 "HgN/A
Weather by CustomWeather, © 2016

See weather overviewHow to use our weather pages